FW2681 Weather Reports


Display with metric or nautical units.
time (UTC)temp
F
wind
direction
speed
MPH
gust
MPH
rain 1hr
in
rain 24hr
in
rain mn
in
humidity
%
barometer
mb
20210619215306 86 27 1.0 7.0 0.00 0.00 0.00 58 1008.9
20210619215204 87 29 1.0 7.0 0.00 0.00 0.00 60 1008.9
20210619215104 88 54 1.0 7.0 0.00 0.00 0.00 68 1009.0
20210619215003 89 118 0.0 3.0 0.00 0.00 0.00 68 1009.0
20210619214903 89 136 0.0 3.0 0.00 0.00 0.00 67 1008.9
20210619214804 89 151 0.0 3.0 0.00 0.00 0.00 67 1008.9
20210619214705 89 152 0.0 2.0 0.00 0.00 0.00 67 1008.8
20210619214604 89 152 0.0 2.0 0.00 0.00 0.00 67 1008.8
20210619214505 89 152 0.0 2.0 0.00 0.00 0.00 67 1008.7
20210619214404 89 152 0.0 2.0 0.00 0.00 0.00 67 1008.6
20210619214304 89 152 0.0 2.0 0.00 0.00 0.00 67 1008.5
20210619214204 89 151 0.0 2.0 0.00 0.00 0.00 67 1008.4
20210619214103 89 152 0.0 2.0 0.00 0.00 0.00 66 1008.4
20210619214003 89 152 0.0 2.0 0.00 0.00 0.00 66 1008.4
20210619213904 89 152 0.0 2.0 0.00 0.00 0.00 66 1008.4
20210619213804 89 151 0.0 2.0 0.00 0.00 0.00 66 1008.5
20210619213704 89 151 0.0 2.0 0.00 0.00 0.00 66 1008.5
20210619213603 89 151 0.0 2.0 0.00 0.00 0.00 65 1008.5
20210619213503 89 152 0.0 2.0 0.00 0.00 0.00 65 1008.5
20210619213404 89 152 0.0 2.0 0.00 0.00 0.00 65 1008.5
20210619213304 89 151 0.0 2.0 0.00 0.00 0.00 65 1008.6
20210619213203 89 152 0.0 2.0 0.00 0.00 0.00 65 1008.5
20210619213103 89 151 0.0 2.0 0.00 0.00 0.00 64 1008.5
20210619213004 89 151 0.0 2.0 0.00 0.00 0.00 64 1008.5
20210619212903 89 151 0.0 2.0 0.00 0.00 0.00 64 1008.5
20210619212803 89 151 0.0 2.0 0.00 0.00 0.00 64 1008.5
20210619212704 89 151 0.0 2.0 0.00 0.00 0.00 63 1008.5
20210619212604 90 151 0.0 2.0 0.00 0.00 0.00 63 1008.6
20210619212504 90 151 0.0 2.0 0.00 0.00 0.00 63 1008.6
20210619212403 90 151 0.0 2.0 0.00 0.00 0.00 64 1008.6
20210619212305 90 151 0.0 2.0 0.00 0.00 0.00 63 1008.6
20210619212204 90 151 0.0 3.0 0.00 0.00 0.00 63 1008.6
20210619212104 90 151 0.0 3.0 0.00 0.00 0.00 63 1008.5
20210619212004 90 152 0.0 3.0 0.00 0.00 0.00 64 1008.5
20210619211904 90 152 0.0 3.0 0.00 0.00 0.00 64 1008.4
20210619211804 90 153 0.0 3.0 0.00 0.00 0.00 64 1008.4
20210619211703 90 153 0.0 3.0 0.00 0.00 0.00 64 1008.4
20210619211603 90 153 0.0 3.0 0.00 0.00 0.00 63 1008.3
20210619211504 90 153 0.0 3.0 0.00 0.00 0.00 64 1008.3
20210619211404 90 156 0.0 3.0 0.00 0.00 0.00 64 1008.3
20210619211304 90 161 0.0 3.0 0.00 0.00 0.00 63 1008.4
20210619211203 90 172 0.0 3.0 0.00 0.00 0.00 64 1008.4
20210619211103 90 175 0.0 3.0 0.00 0.00 0.00 64 1008.4
20210619211004 90 182 0.0 3.0 0.00 0.00 0.00 64 1008.4
20210619210904 90 212 1.0 6.0 0.00 0.00 0.00 64 1008.5
20210619210804 90 207 1.0 6.0 0.00 0.00 0.00 64 1008.5
20210619210703 90 207 1.0 6.0 0.00 0.00 0.00 64 1008.5
20210619210603 90 207 1.0 6.0 0.00 0.00 0.00 64 1008.4
20210619210504 90 200 1.0 6.0 0.00 0.00 0.00 64 1008.4
20210619210404 90 202 1.0 6.0 0.00 0.00 0.00 63 1008.5
20210619210304 90 194 1.0 6.0 0.00 0.00 0.00 63 1008.5
20210619210203 90 187 1.0 6.0 0.00 0.00 0.00 64 1008.5
20210619210103 90 178 1.0 6.0 0.00 0.00 0.00 64 1008.5
20210619210004 90 175 1.0 6.0 0.00 0.00 0.00 64 1008.5
20210619205903 90 151 1.0 4.0 0.00 0.00 0.00 64 1008.6
20210619205803 90 148 1.0 4.0 0.00 0.00 0.00 65 1008.6
20210619205703 90 145 1.0 5.0 0.00 0.00 0.00 64 1008.5
20210619205604 90 156 1.0 5.0 0.00 0.00 0.00 64 1008.5
20210619205504 90 164 1.0 5.0 0.00 0.00 0.00 64 1008.4
20210619205403 90 164 1.0 5.0 0.00 0.00 0.00 63 1008.3
20210619205305 90 163 1.0 5.0 0.00 0.00 0.00 64 1008.3
20210619205204 90 163 1.0 5.0 0.00 0.00 0.00 64 1008.2
20210619205104 90 168 1.0 5.0 0.00 0.00 0.00 64 1008.1
20210619205004 90 168 1.0 5.0 0.00 0.00 0.00 63 1008.1
20210619204903 90 168 1.0 5.0 0.00 0.00 0.00 64 1008.0
20210619204803 90 173 1.0 5.0 0.00 0.00 0.00 65 1008.0
20210619204703 90 181 1.0 5.0 0.00 0.00 0.00 65 1008.2
20210619204604 90 190 1.0 7.0 0.00 0.00 0.00 65 1008.2
20210619204504 90 185 1.0 7.0 0.00 0.00 0.00 66 1008.2
20210619204403 90 193 1.0 7.0 0.00 0.00 0.00 65 1008.3
20210619204304 90 194 1.0 7.0 0.00 0.00 0.00 65 1008.3
20210619204204 90 181 1.0 7.0 0.00 0.00 0.00 65 1008.3
20210619204104 90 179 1.0 7.0 0.00 0.00 0.00 65 1008.4
20210619204004 90 181 2.0 7.0 0.00 0.00 0.00 65 1008.6
20210619203903 90 185 2.0 7.0 0.00 0.00 0.00 64 1008.6
20210619203803 91 187 2.0 7.0 0.00 0.00 0.00 64 1008.5
20210619203704 91 197 2.0 7.0 0.00 0.00 0.00 63 1008.5
20210619203604 91 170 2.0 8.0 0.00 0.00 0.00 63 1008.5
20210619203504 91 168 2.0 8.0 0.00 0.00 0.00 63 1008.5
20210619203403 91 166 2.0 8.0 0.00 0.00 0.00 63 1008.5
20210619203303 91 168 2.0 8.0 0.00 0.00 0.00 62 1008.5
20210619203204 91 173 2.0 8.0 0.00 0.00 0.00 63 1008.5
20210619203104 91 168 2.0 8.0 0.00 0.00 0.00 63 1008.6
20210619203005 91 168 2.0 8.0 0.00 0.00 0.00 63 1008.6
20210619202904 91 167 2.0 8.0 0.00 0.00 0.00 63 1008.7
20210619202804 91 166 2.0 8.0 0.00 0.00 0.00 62 1008.7
20210619202703 92 159 3.0 8.0 0.00 0.00 0.00 62 1008.7
20210619202603 92 163 2.0 8.0 0.00 0.00 0.00 63 1008.7
20210619202503 92 162 2.0 8.0 0.00 0.00 0.00 64 1008.7
20210619202404 91 159 2.0 8.0 0.00 0.00 0.00 65 1008.6
20210619202306 91 158 2.0 8.0 0.00 0.00 0.00 64 1008.5
20210619202204 91 169 2.0 8.0 0.00 0.00 0.00 64 1008.6
20210619202103 91 173 2.0 8.0 0.00 0.00 0.00 65 1008.6
20210619202003 91 185 2.0 8.0 0.00 0.00 0.00 64 1008.6
20210619201903 91 189 2.0 8.0 0.00 0.00 0.00 64 1008.6
20210619201804 91 188 2.0 8.0 0.00 0.00 0.00 63 1008.7
20210619201704 91 199 2.0 6.0 0.00 0.00 0.00 64 1008.8
20210619201603 91 204 2.0 6.0 0.00 0.00 0.00 64 1008.8
20210619201504 91 198 2.0 6.0 0.00 0.00 0.00 65 1008.8
20210619201403 91 192 2.0 6.0 0.00 0.00 0.00 64 1009.0
20210619201303 91 190 2.0 6.0 0.00 0.00 0.00 64 1009.0
20210619201203 91 173 2.0 6.0 0.00 0.00 0.00 64 1009.1
20210619201104 91 169 2.0 6.0 0.00 0.00 0.00 63 1009.1
20210619201004 91 152 2.0 8.0 0.00 0.00 0.00 64 1009.1
20210619200903 91 146 2.0 8.0 0.00 0.00 0.00 64 1009.0
20210619200803 91 146 2.0 8.0 0.00 0.00 0.00 64 1008.9
20210619200703 91 143 2.0 8.0 0.00 0.00 0.00 64 1008.8
20210619200604 92 145 2.0 8.0 0.00 0.00 0.00 64 1008.8
20210619200504 92 153 2.0 8.0 0.00 0.00 0.00 64 1008.7
20210619200403 92 156 2.0 8.0 0.00 0.00 0.00 64 1008.7
20210619200303 92 173 3.0 8.0 0.00 0.00 0.00 64 1008.7
20210619200203 92 177 3.0 8.0 0.00 0.00 0.00 64 1008.6
20210619200103 92 170 3.0 10.0 0.00 0.00 0.00 64 1008.5
20210619200004 92 172 3.0 10.0 0.00 0.00 0.00 64 1008.5
20210619195903 92 176 3.0 10.0 0.00 0.00 0.00 65 1008.4
20210619195803 92 183 3.0 10.0 0.00 0.00 0.00 65 1008.3
20210619195704 91 181 3.0 10.0 0.00 0.00 0.00 65 1008.3
20210619195604 91 183 3.0 10.0 0.00 0.00 0.00 64 1008.3
20210619195503 91 177 3.0 10.0 0.00 0.00 0.00 65 1008.3
20210619195403 91 179 3.0 10.0 0.00 0.00 0.00 65 1008.5
20210619195305 91 171 3.0 10.0 0.00 0.00 0.00 65 1008.5
20210619195204 91 169 3.0 10.0 0.00 0.00 0.00 64 1008.6
20210619195103 91 181 2.0 10.0 0.00 0.00 0.00 64 1008.6
20210619195004 91 183 2.0 10.0 0.00 0.00 0.00 63 1008.6
20210619194904 91 190 2.0 10.0 0.00 0.00 0.00 63 1008.6
20210619194803 91 186 2.0 10.0 0.00 0.00 0.00 64 1008.6
20210619194703 91 173 3.0 10.0 0.00 0.00 0.00 63 1008.5
20210619194603 91 173 3.0 10.0 0.00 0.00 0.00 64 1008.5
20210619194504 91 178 3.0 10.0 0.00 0.00 0.00 64 1008.6
20210619194403 91 184 3.0 10.0 0.00 0.00 0.00 65 1008.6
20210619194303 91 178 3.0 8.0 0.00 0.00 0.00 67 1008.6
20210619194204 91 172 3.0 8.0 0.00 0.00 0.00 66 1008.6
20210619194104 91 170 3.0 8.0 0.00 0.00 0.00 66 1008.6
20210619194004 91 170 3.0 8.0 0.00 0.00 0.00 67 1008.7
20210619193903 91 167 3.0 8.0 0.00 0.00 0.00 65 1008.8
20210619193803 91 165 2.0 8.0 0.00 0.00 0.00 65 1008.9
20210619193704 91 177 2.0 8.0 0.00 0.00 0.00 66 1008.9
20210619193604 91 169 2.0 8.0 0.00 0.00 0.00 66 1009.0
20210619193504 91 159 2.0 8.0 0.00 0.00 0.00 66 1009.1
20210619193403 91 148 2.0 7.0 0.00 0.00 0.00 66 1009.1
20210619193303 91 148 2.0 7.0 0.00 0.00 0.00 67 1009.2
20210619193203 91 152 2.0 7.0 0.00 0.00 0.00 68 1009.2
20210619193104 91 152 2.0 7.0 0.00 0.00 0.00 66 1009.2
20210619193004 91 150 2.0 7.0 0.00 0.00 0.00 66 1009.2
20210619192904 91 148 2.0 7.0 0.00 0.00 0.00 66 1009.4
20210619192804 91 147 2.0 7.0 0.00 0.00 0.00 66 1009.4
20210619192704 90 144 2.0 7.0 0.00 0.00 0.00 66 1009.4
20210619192604 90 144 2.0 7.0 0.00 0.00 0.00 67 1009.4
20210619192504 90 147 2.0 7.0 0.00 0.00 0.00 67 1009.4
20210619192403 90 150 2.0 7.0 0.00 0.00 0.00 67 1009.6
20210619192305 90 150 2.0 7.0 0.00 0.00 0.00 66 1009.6
20210619192204 90 146 2.0 7.0 0.00 0.00 0.00 65 1009.6
20210619192104 90 144 2.0 7.0 0.00 0.00 0.00 66 1009.6
20210619192003 90 146 2.0 5.0 0.00 0.00 0.00 65 1009.6
20210619191903 90 148 1.0 5.0 0.00 0.00 0.00 65 1009.7
20210619191804 90 150 1.0 5.0 0.00 0.00 0.00 65 1009.7
20210619191704 90 146 1.0 6.0 0.00 0.00 0.00 67 1009.7
20210619191603 90 145 1.0 6.0 0.00 0.00 0.00 68 1009.7
20210619191504 90 144 1.0 6.0 0.00 0.00 0.00 67 1009.7
20210619191404 90 142 2.0 6.0 0.00 0.00 0.00 67 1009.8
20210619191303 90 146 2.0 6.0 0.00 0.00 0.00 67 1009.8
20210619191203 90 146 2.0 6.0 0.00 0.00 0.00 66 1009.8
20210619191103 90 148 2.0 6.0 0.00 0.00 0.00 67 1009.8
20210619191004 90 148 2.0 6.0 0.00 0.00 0.00 67 1009.8
20210619190904 90 146 2.0 6.0 0.00 0.00 0.00 67 1009.8
20210619190804 90 147 2.0 6.0 0.00 0.00 0.00 67 1009.9
20210619190703 90 148 2.0 6.0 0.00 0.00 0.00 68 1009.9
20210619190603 90 150 2.0 6.0 0.00 0.00 0.00 68 1009.9
20210619190503 90 147 2.0 6.0 0.00 0.00 0.00 66 1009.9
20210619190404 90 150 2.0 6.0 0.00 0.00 0.00 67 1010.0
20210619190304 90 145 2.0 6.0 0.00 0.00 0.00 67 1010.0
20210619190204 90 145 2.0 6.0 0.00 0.00 0.00 67 1010.0
20210619190104 90 141 1.0 6.0 0.00 0.00 0.00 67 1010.1
20210619190004 89 138 1.0 6.0 0.00 0.00 0.00 69 1010.1
20210619185904 89 137 1.0 5.0 0.00 0.00 0.00 71 1010.1
20210619185803 89 134 1.0 7.0 0.00 0.00 0.00 69 1010.1
20210619185703 89 135 1.0 7.0 0.00 0.00 0.00 71 1010.2
20210619185604 89 135 1.0 7.0 0.00 0.00 0.00 71 1010.2
20210619185504 89 135 2.0 7.0 0.00 0.00 0.00 70 1010.3
20210619185404 89 133 2.0 7.0 0.00 0.00 0.00 71 1010.4
20210619185305 88 133 2.0 7.0 0.00 0.00 0.00 70 1010.4
20210619185203 88 134 2.0 7.0 0.00 0.00 0.00 69 1010.4
20210619185103 88 135 2.0 7.0 0.00 0.00 0.00 69 1010.4
20210619185003 88 135 2.0 8.0 0.00 0.00 0.00 69 1010.5
20210619184904 88 135 2.0 8.0 0.00 0.00 0.00 69 1010.5
20210619184803 88 138 2.0 8.0 0.00 0.00 0.00 69 1010.5
20210619184703 88 140 2.0 8.0 0.00 0.00 0.00 69 1010.5
20210619184603 88 142 2.0 8.0 0.00 0.00 0.00 69 1010.5
20210619184504 88 147 2.0 8.0 0.00 0.00 0.00 70 1010.5
20210619184403 88 151 2.0 8.0 0.00 0.00 0.00 69 1010.6
20210619184303 88 148 2.0 8.0 0.00 0.00 0.00 69 1010.6
20210619184203 88 145 2.0 8.0 0.00 0.00 0.00 69 1010.6
20210619184104 88 146 2.0 8.0 0.00 0.00 0.00 68 1010.6
20210619184003 88 147 2.0 8.0 0.00 0.00 0.00 68 1010.6
20210619183903 88 143 2.0 8.0 0.00 0.00 0.00 68 1010.7
20210619183803 88 140 2.0 8.0 0.00 0.00 0.00 69 1010.7
20210619183704 88 137 2.0 8.0 0.00 0.00 0.00 69 1010.7
20210619183604 88 136 2.0 8.0 0.00 0.00 0.00 70 1010.7
20210619183504 88 133 2.0 8.0 0.00 0.00 0.00 69 1010.8
20210619183403 88 134 2.0 8.0 0.00 0.00 0.00 70 1010.7
20210619183303 88 134 2.0 8.0 0.00 0.00 0.00 70 1010.7
20210619183204 88 136 2.0 8.0 0.00 0.00 0.00 70 1010.8
20210619183104 88 137 2.0 8.0 0.00 0.00 0.00 69 1010.8
20210619183004 88 137 2.0 8.0 0.00 0.00 0.00 69 1010.8
20210619182903 88 138 2.0 8.0 0.00 0.00 0.00 69 1010.8
20210619182803 88 136 2.0 7.0 0.00 0.00 0.00 69 1010.8
20210619182703 88 140 2.0 7.0 0.00 0.00 0.00 70 1010.9
20210619182603 88 138 2.0 7.0 0.00 0.00 0.00 70 1010.8
20210619182503 88 138 2.0 7.0 0.00 0.00 0.00 71 1010.9
20210619182404 88 137 2.0 7.0 0.00 0.00 0.00 71 1010.9
20210619182305 88 136 2.0 7.0 0.00 0.00 0.00 70 1010.9
20210619182203 88 136 2.0 7.0 0.00 0.00 0.00 71 1010.9
20210619182103 87 135 2.0 7.0 0.00 0.00 0.00 71 1010.9
20210619182004 87 136 2.0 7.0 0.00 0.00 0.00 70 1010.9
20210619181904 87 137 2.0 7.0 0.00 0.00 0.00 70 1010.8
20210619181803 87 137 2.0 7.0 0.00 0.00 0.00 70 1010.9
20210619181703 87 134 2.0 7.0 0.00 0.00 0.00 70 1010.9
20210619181604 87 134 2.0 7.0 0.00 0.00 0.00 71 1010.9
20210619181504 87 136 2.0 7.0 0.00 0.00 0.00 73 1010.9
20210619181403 87 138 2.0 7.0 0.00 0.00 0.00 72 1010.9
20210619181303 87 139 2.0 7.0 0.00 0.00 0.00 71 1010.9
20210619181204 87 139 2.0 7.0 0.00 0.00 0.00 71 1010.9
20210619181104 87 139 2.0 7.0 0.00 0.00 0.00 72 1010.8
20210619181004 87 139 2.0 7.0 0.00 0.00 0.00 71 1010.8
20210619180903 86 139 2.0 7.0 0.00 0.00 0.00 71 1010.8
20210619180804 86 140 2.0 7.0 0.00 0.00 0.00 71 1010.8
20210619180704 86 145 2.0 7.0 0.00 0.00 0.00 72 1011.0
20210619180603 86 150 2.0 6.0 0.00 0.00 0.00 72 1011.0
20210619180503 86 147 2.0 7.0 0.00 0.00 0.00 72 1011.0
20210619180404 86 148 2.0 7.0 0.00 0.00 0.00 73 1011.1
20210619180304 86 148 2.0 7.0 0.00 0.00 0.00 74 1011.1
20210619180204 86 148 1.0 7.0 0.00 0.00 0.00 73 1011.0
20210619180103 86 147 2.0 7.0 0.00 0.00 0.00 73 1011.0
20210619180004 86 145 2.0 7.0 0.00 0.00 0.00 72 1011.0
20210619175903 85 146 1.0 7.0 0.00 0.00 0.00 74 1011.1
20210619175803 85 145 1.0 7.0 0.00 0.00 0.00 74 1011.1
20210619175704 85 141 1.0 7.0 0.00 0.00 0.00 75 1011.1
20210619175604 85 136 2.0 7.0 0.00 0.00 0.00 74 1011.1
20210619175503 85 136 2.0 7.0 0.00 0.00 0.00 74 1011.1
20210619175404 85 136 2.0 7.0 0.00 0.00 0.00 74 1011.1
20210619175305 85 134 2.0 7.0 0.00 0.00 0.00 73 1011.1
20210619175204 85 135 3.0 8.0 0.00 0.00 0.00 73 1011.1
20210619175104 85 134 3.0 8.0 0.00 0.00 0.00 73 1011.1
20210619175003 85 134 3.0 8.0 0.00 0.00 0.00 72 1011.2
20210619174903 85 134 3.0 8.0 0.00 0.00 0.00 72 1011.2
20210619174804 85 134 3.0 8.0 0.00 0.00 0.00 72 1011.2
20210619174704 85 133 3.0 8.0 0.00 0.00 0.00 72 1011.3
20210619174604 85 134 3.0 8.0 0.00 0.00 0.00 72 1011.3
20210619174505 85 133 3.0 8.0 0.00 0.00 0.00 72 1011.4
20210619174404 85 131 3.0 8.0 0.00 0.00 0.00 72 1011.4
20210619174303 85 132 3.0 8.0 0.00 0.00 0.00 71 1011.4
20210619174203 85 133 3.0 8.0 0.00 0.00 0.00 72 1011.5
20210619174103 85 136 3.0 8.0 0.00 0.00 0.00 72 1011.5
20210619174003 85 136 3.0 8.0 0.00 0.00 0.00 72 1011.5
20210619173904 85 135 3.0 9.0 0.00 0.00 0.00 72 1011.5
20210619173804 85 135 3.0 9.0 0.00 0.00 0.00 71 1011.5
20210619173703 85 136 3.0 9.0 0.00 0.00 0.00 72 1011.4
20210619173603 85 135 3.0 9.0 0.00 0.00 0.00 71 1011.4
20210619173504 85 135 3.0 9.0 0.00 0.00 0.00 71 1011.5
20210619173404 85 139 3.0 9.0 0.00 0.00 0.00 71 1011.5
20210619173303 85 139 3.0 9.0 0.00 0.00 0.00 71 1011.5
20210619173203 85 137 3.0 9.0 0.00 0.00 0.00 71 1011.5
20210619173104 85 136 3.0 9.0 0.00 0.00 0.00 70 1011.5
20210619173004 85 136 3.0 9.0 0.00 0.00 0.00 70 1011.4
20210619172904 86 137 2.0 7.0 0.00 0.00 0.00 71 1011.4
20210619172804 86 137 3.0 6.0 0.00 0.00 0.00 71 1011.3
20210619172704 86 135 3.0 6.0 0.00 0.00 0.00 71 1011.3
20210619172603 86 135 3.0 8.0 0.00 0.00 0.00 71 1011.4
20210619172503 86 134 3.0 8.0 0.00 0.00 0.00 71 1011.5
20210619172404 86 134 3.0 8.0 0.00 0.00 0.00 71 1011.5
20210619172305 85 133 2.0 8.0 0.00 0.00 0.00 72 1011.5
20210619172203 85 133 2.0 8.0 0.00 0.00 0.00 72 1011.5
20210619172103 85 132 2.0 8.0 0.00 0.00 0.00 71 1011.5
20210619172004 85 132 2.0 8.0 0.00 0.00 0.00 71 1011.5
20210619171904 85 131 2.0 8.0 0.00 0.00 0.00 72 1011.6
20210619171805 85 130 2.0 8.0 0.00 0.00 0.00 72 1011.6
20210619171703 85 133 2.0 8.0 0.00 0.00 0.00 72 1011.6
20210619171603 85 133 1.0 6.0 0.00 0.00 0.00 74 1011.6
20210619171505 85 136 2.0 6.0 0.00 0.00 0.00 74 1011.6
20210619171404 85 136 2.0 7.0 0.00 0.00 0.00 74 1011.6
20210619171304 84 135 2.0 7.0 0.00 0.00 0.00 74 1011.6
20210619171203 84 135 2.0 7.0 0.00 0.00 0.00 73 1011.7
20210619171103 84 134 2.0 7.0 0.00 0.00 0.00 74 1011.7
20210619171005 84 135 2.0 7.0 0.00 0.00 0.00 73 1011.7
20210619170904 84 136 2.0 7.0 0.00 0.00 0.00 73 1011.7
20210619170804 84 136 2.0 7.0 0.00 0.00 0.00 74 1011.6
20210619170703 84 135 2.0 7.0 0.00 0.00 0.00 73 1011.7
20210619170603 84 137 2.0 7.0 0.00 0.00 0.00 73 1011.7
20210619170504 84 135 3.0 7.0 0.00 0.00 0.00 74 1011.7
20210619170404 83 134 3.0 8.0 0.00 0.00 0.00 74 1011.8
20210619170304 83 134 3.0 10.0 0.00 0.00 0.00 74 1011.7
20210619170204 83 135 3.0 10.0 0.00 0.00 0.00 74 1011.7
20210619170103 83 134 3.0 10.0 0.00 0.00 0.00 73 1011.8
20210619170004 83 134 3.0 10.0 0.00 0.00 0.00 73 1011.8
20210619165903 83 134 3.0 10.0 0.00 0.00 0.00 72 1011.8
20210619165803 83 133 3.0 10.0 0.00 0.00 0.00 72 1011.8
20210619165704 83 134 2.0 10.0 0.00 0.00 0.00 72 1011.9
20210619165604 83 133 2.0 10.0 0.00 0.00 0.00 73 1011.9
20210619165503 84 134 2.0 10.0 0.00 0.00 0.00 73 1011.9
20210619165403 84 135 2.0 10.0 0.00 0.00 0.00 73 1011.9
20210619165305 83 138 2.0 9.0 0.00 0.00 0.00 74 1011.9
20210619165204 83 138 2.0 9.0 0.00 0.00 0.00 73 1012.0
20210619165104 83 139 2.0 9.0 0.00 0.00 0.00 73 1012.0
20210619165003 83 140 3.0 9.0 0.00 0.00 0.00 73 1012.0
20210619164903 83 140 3.0 8.0 0.00 0.00 0.00 74 1012.0
20210619164803 83 141 2.0 8.0 0.00 0.00 0.00 73 1012.0
20210619164704 83 141 3.0 8.0 0.00 0.00 0.00 73 1012.0
20210619164604 83 141 2.0 8.0 0.00 0.00 0.00 73 1012.0
20210619164504 83 145 2.0 8.0 0.00 0.00 0.00 73 1012.0
20210619164404 83 149 2.0 8.0 0.00 0.00 0.00 73 1012.0
20210619164304 82 147 2.0 8.0 0.00 0.00 0.00 73 1012.0
20210619164203 82 145 2.0 8.0 0.00 0.00 0.00 73 1012.0
20210619164104 82 143 2.0 5.0 0.00 0.00 0.00 73 1012.0
20210619164004 82 140 2.0 7.0 0.00 0.00 0.00 73 1011.9
20210619163903 82 139 2.0 7.0 0.00 0.00 0.00 73 1012.0
20210619163803 82 138 2.0 7.0 0.00 0.00 0.00 74 1011.9
20210619163703 82 140 2.0 9.0 0.00 0.00 0.00 74 1012.0
20210619163603 82 139 3.0 14.0 0.00 0.00 0.00 74 1012.0
20210619163503 82 137 3.0 14.0 0.00 0.00 0.00 74 1011.9
20210619163404 82 133 3.0 14.0 0.00 0.00 0.00 73 1012.0
20210619163304 82 133 3.0 14.0 0.00 0.00 0.00 73 1012.0
20210619163203 82 134 3.0 14.0 0.00 0.00 0.00 73 1012.0
20210619163103 82 135 3.0 14.0 0.00 0.00 0.00 73 1012.0
20210619163004 82 136 3.0 14.0 0.00 0.00 0.00 73 1012.0
20210619162904 82 135 3.0 14.0 0.00 0.00 0.00 73 1012.0
20210619162804 82 135 3.0 14.0 0.00 0.00 0.00 73 1012.0
20210619162704 82 132 3.0 14.0 0.00 0.00 0.00 73 1012.0
20210619162604 82 130 3.0 10.0 0.00 0.00 0.00 74 1012.0
20210619162503 82 129 3.0 10.0 0.00 0.00 0.00 74 1012.0
20210619162404 82 128 3.0 8.0 0.00 0.00 0.00 75 1011.8
20210619162305 82 129 3.0 8.0 0.00 0.00 0.00 74 1011.8
20210619162203 82 128 3.0 8.0 0.00 0.00 0.00 74 1011.8
20210619162103 82 127 3.0 8.0 0.00 0.00 0.00 73 1011.7
20210619162003 82 125 3.0 9.0 0.00 0.00 0.00 73 1011.7
20210619161904 82 127 4.0 11.0 0.00 0.00 0.00 73 1011.7
20210619161803 82 127 4.0 13.0 0.00 0.00 0.00 74 1011.7
20210619161703 82 128 4.0 13.0 0.00 0.00 0.00 73 1011.7
20210619161604 82 129 4.0 13.0 0.00 0.00 0.00 73 1011.7
20210619161505 82 130 4.0 13.0 0.00 0.00 0.00 74 1011.7
20210619161403 82 133 5.0 13.0 0.00 0.00 0.00 73 1011.6
20210619161304 82 133 5.0 13.0 0.00 0.00 0.00 73 1011.6
20210619161203 82 133 5.0 13.0 0.00 0.00 0.00 73 1011.5
20210619161103 82 134 5.0 13.0 0.00 0.00 0.00 73 1011.5
20210619161003 82 136 6.0 13.0 0.00 0.00 0.00 73 1011.5
20210619160904 82 137 6.0 13.0 0.00 0.00 0.00 74 1011.5
20210619160804 82 141 6.0 8.0 0.00 0.00 0.00 74 1011.5
20210619160703 81 141 6.0 6.0 0.00 0.00 0.00 74 1011.5
20210619160603 81 144 6.0 6.0 0.00 0.00 0.00 73 1011.5
20210619160504 81 146 7.0 6.0 0.00 0.00 0.00 73 1011.4
20210619145804 80 93 3.0 10.0 0.00 0.02 0.00 76 1013.8
20210619145704 80 91 2.0 10.0 0.00 0.28 0.00 75 1013.8
20210619145603 80 78 3.0 10.0 0.00 0.50 0.00 75 1013.8
20210619145504 80 75 2.0 10.0 0.00 0.50 0.00 76 1013.8
20210619145404 80 82 2.0 10.0 0.00 0.69 0.00 75 1013.8
20210619145306 80 92 2.0 10.0 0.00 0.91 0.00 76 1013.8
20210619145204 80 99 2.0 7.0 0.00 1.33 0.00 76 1013.9
20210619145104 80 85 2.0 7.0 0.00 1.33 0.00 77 1013.9
20210619145004 80 81 2.0 7.0 0.00 1.54 0.00 77 1013.8
20210619144904 79 76 2.0 7.0 0.00 1.77 0.00 77 1013.8
20210619144804 79 66 1.0 7.0 0.00 2.25 0.00 78 1013.8
20210619144704 79 55 1.0 7.0 0.00 2.25 0.00 78 1013.8
20210619144604 79 57 1.0 7.0 0.00 2.37 0.00 78 1013.9
20210619144504 79 66 1.0 6.0 0.00 2.67 0.00 78 1013.9
20210619144404 79 61 1.0 6.0 0.00 2.84 0.00 78 1013.9
20210619144304 79 75 1.0 7.0 0.00 2.84 0.00 78 1014.0
20210619144204 79 70 2.0 7.0 0.00 2.99 0.00 78 1014.0
20210619144104 79 86 1.0 8.0 0.00 3.09 0.00 78 1014.1
20210619144003 79 88 2.0 8.0 0.00 3.48 0.00 79 1014.1
20210619143903 79 89 2.0 8.0 0.00 3.59 0.00 78 1014.1
20210619143804 79 96 2.0 8.0 0.00 3.59 0.00 78 1014.1
20210619143704 79 97 2.0 8.0 0.00 3.66 0.00 79 1014.1
20210619143604 79 94 2.0 8.0 0.00 3.70 0.00 78 1014.2
20210619143504 79 94 2.0 8.0 0.00 4.02 0.00 78 1014.2
20210619143404 79 91 2.0 8.0 0.00 4.02 0.00 78 1014.2
20210619143304 79 80 1.0 8.0 0.00 4.18 0.00 78 1014.2
20210619143204 79 88 1.0 8.0 0.00 4.18 0.00 78 1014.2
20210619143103 79 87 1.0 8.0 0.00 4.30 0.00 78 1014.1
20210619143004 80 88 1.0 8.0 0.00 4.43 0.00 78 1014.1
20210619142904 80 92 1.0 8.0 0.00 4.43 0.00 79 1014.2
20210619142803 80 80 1.0 8.0 0.00 4.59 0.00 79 1014.2
20210619142704 80 69 1.0 8.0 0.00 4.59 0.00 80 1014.2
20210619142604 80 75 1.0 6.0 0.00 4.64 0.00 80 1014.2
20210619142504 80 73 1.0 6.0 0.00 4.66 0.00 80 1014.1
20210619142403 80 67 1.0 6.0 0.00 4.77 0.00 80 1014.1
20210619142305 80 68 1.0 6.0 0.00 4.97 0.00 80 1014.1
20210619142204 80 69 1.0 6.0 0.00 4.97 0.00 80 1014.0
20210619142104 80 78 1.0 6.0 0.00 5.19 0.00 80 1014.1
20210619142004 80 85 1.0 6.0 0.00 5.34 0.00 80 1014.1
20210619141903 80 77 1.0 6.0 0.00 5.43 0.00 80 1014.0
20210619141803 80 81 1.0 6.0 0.00 5.52 0.00 80 1014.0
20210619141704 80 106 1.0 6.0 0.00 5.59 0.00 80 1014.0
20210619141604 80 114 1.0 6.0 0.00 5.70 0.00 80 1014.0
20210619141504 80 116 1.0 6.0 0.00 5.73 0.00 81 1014.0
20210619141404 80 125 1.0 6.0 0.00 5.73 0.00 81 1014.0
20210619141304 80 126 2.0 7.0 0.00 5.93 0.00 81 1014.0
20210619141204 80 127 2.0 7.0 0.00 5.99 0.00 80 1014.0
20210619141104 80 128 2.0 7.0 0.00 6.39 0.00 81 1013.9
20210619141003 80 129 2.0 7.0 0.00 6.45 0.00 81 1014.0
20210619140903 80 128 2.0 7.0 0.00 6.46 0.00 80 1014.0
20210619140804 80 128 2.0 7.0 0.00 6.46 0.00 80 1014.0
20210619140704 80 128 2.0 7.0 0.00 6.46 0.00 80 1014.0
20210619140605 81 127 2.0 7.0 0.00 6.58 0.00 80 1014.0
20210619140504 81 126 1.0 7.0 0.00 6.67 0.00 80 1014.0
20210619140403 81 125 1.0 7.0 0.00 6.71 0.00 80 1014.0
20210619140304 81 124 1.0 5.0 0.00 6.71 0.00 80 1014.0
20210619140204 81 121 1.0 5.0 0.00 6.71 0.00 80 1014.0
20210619140104 81 120 1.0 4.0 0.00 6.88 0.00 80 1014.0
20210619140005 81 119 1.0 4.0 0.00 6.88 0.00 80 1014.0
20210619135904 81 120 1.0 5.0 0.00 6.91 0.00 80 1014.0
20210619135805 81 122 2.0 8.0 0.00 7.12 0.00 80 1014.0
20210619135704 81 125 2.0 11.0 0.00 7.25 0.00 81 1014.0
20210619135603 81 126 2.0 11.0 0.00 7.46 0.00 81 1013.9
20210619135503 81 128 3.0 11.0 0.00 7.61 0.00 81 1014.0
20210619135404 81 127 3.0 11.0 0.00 7.61 0.00 81 1014.0
20210619135306 81 126 3.0 11.0 0.00 7.76 0.00 80 1013.9
20210619135204 81 125 3.0 11.0 0.00 7.76 0.00 80 1013.9
20210619135104 81 125 3.0 11.0 0.00 7.77 0.00 80 1013.9
20210619135003 81 125 3.0 11.0 0.00 8.05 0.00 80 1013.9
20210619134904 81 123 2.0 11.0 0.00 8.05 0.00 79 1013.9
20210619134804 81 121 2.0 11.0 0.00 8.26 0.00 80 1013.9
20210619134704 81 117 2.0 9.0 0.00 8.39 0.00 80 1013.8
20210619134603 81 109 1.0 8.0 0.00 8.63 0.00 81 1013.7
20210619134504 81 101 1.0 8.0 0.00 8.86 0.00 81 1013.7
20210619134403 81 98 1.0 8.0 0.00 9.09 0.00 81 1013.8
20210619134304 81 99 1.0 8.0 0.00 9.09 0.00 80 1013.8
20210619134204 80 109 2.0 8.0 0.00 9.33 0.00 80 1013.7
20210619134104 80 112 2.0 8.0 0.00 9.56 0.00 81 1013.7
20210619134003 80 115 2.0 8.0 0.00 9.89 0.00 80 1013.6
20210619133904 80 119 2.0 8.0 0.00 9.89 0.00 80 1013.7
20210619133804 80 120 3.0 8.0 0.00 1.01 0.00 80 1013.7
20210619133704 80 122 3.0 7.0 0.00 1.03 0.00 81 1013.7
20210619133603 80 125 3.0 7.0 0.00 1.05 0.00 80 1013.7
20210619133504 80 125 3.0 7.0 0.00 1.10 0.00 80 1013.7